Atlas — SV6729 — position and weather

sailwx.info

Track history (hours):
 
Tides and Currents Weather Stations Pressure Air Temp Water Temp Dewpoint Dewpoint Depression Visibility Wind Speed Wind Dir Waves Ship Positions

Atlas

Last reported at 2014-Oct-25 21:33 UTC. Time now 2014-Oct-25 22:06 UTC.
Position N 37°57' E 023°37'.

Length 29 m; draft 5 m.

Type: Tug. MMSI: 239611000.

Date/timePositionNaut miles runAvg speedWind from/ knotsBaromVisibWave heightAir tempDewpointWater temp
2014-Oct-25 21:33N 37°57' E 023°37'0 0.0
2014-Oct-25 20:31N 37°57' E 023°37'0 0.0
2014-Oct-25 19:32N 37°57' E 023°37'1 0.7
2014-Oct-25 18:33N 37°57' E 023°36'0 0.1
2014-Oct-25 17:32N 37°57' E 023°36'1 0.5
2014-Oct-25 16:31N 37°57' E 023°37'0 0.0
2014-Oct-25 15:32N 37°57' E 023°37'0 0.0
2014-Oct-25 14:26N 37°57' E 023°37'0 0.2
2014-Oct-25 13:33N 37°57' E 023°36'1 1.1
2014-Oct-25 12:33N 37°56' E 023°36'1 1.2
2014-Oct-25 11:33N 37°58' E 023°36'0 0.2
2014-Oct-25 10:31N 37°57' E 023°37'0 0.2
2014-Oct-25 09:30N 37°57' E 023°36'0 0.2
2014-Oct-25 08:30N 37°57' E 023°37'0 0.0
2014-Oct-25 07:33N 37°57' E 023°37'1 1.0
2014-Oct-25 06:33N 37°57' E 023°35'1 1.0
2014-Oct-25 05:33N 37°56' E 023°36'1 0.9
2014-Oct-25 04:33N 37°57' E 023°35'1 1.2
2014-Oct-25 03:33N 37°57' E 023°36'0 0.4
2014-Oct-25 02:26N 37°57' E 023°37'0 0.0
2014-Oct-25 01:31N 37°57' E 023°37'0 0.0
2014-Oct-25 00:33N 37°57' E 023°37'0 0.0
2014-Oct-24 23:33N 37°57' E 023°37'0 0.0
2014-Oct-24 22:26N 37°57' E 023°37'0 0.0
2014-Oct-24 21:31N 37°57' E 023°37'0 0.0
2014-Oct-24 20:32N 37°57' E 023°37'0 0.0
2014-Oct-24 19:29N 37°57' E 023°37'0 0.0
2014-Oct-24 18:23N 37°57' E 023°37'0 0.0
2014-Oct-24 17:31N 37°57' E 023°37'2 1.9
2014-Oct-24 16:28N 37°58' E 023°34'0 0.0
2014-Oct-24 15:29N 37°58' E 023°34'2 1.7
2014-Oct-24 14:34N 37°57' E 023°36'0 0.4
2014-Oct-24 13:31N 37°57' E 023°37'2 2.0
2014-Oct-24 12:33N 37°58' E 023°34'0 0.0
2014-Oct-24 11:31N 37°58' E 023°34'2 2.0
2014-Oct-24 10:31N 37°57' E 023°37'0 0.0
2014-Oct-24 09:32N 37°57' E 023°37'0 0.0
2014-Oct-24 08:33N 37°57' E 023°37'0 0.0
2014-Oct-24 07:32N 37°57' E 023°37'0 0.0
2014-Oct-24 06:31N 37°57' E 023°37'0 0.0
2014-Oct-24 05:31N 37°57' E 023°37'0 0.0
2014-Oct-24 04:32N 37°57' E 023°37'0 0.0
2014-Oct-24 03:31N 37°57' E 023°37'0 0.0
2014-Oct-24 02:27N 37°57' E 023°37'0 0.0
2014-Oct-24 01:32N 37°57' E 023°37'0 0.0
2014-Oct-24 00:32N 37°57' E 023°37'0 0.0
2014-Oct-23 23:32N 37°57' E 023°37'0 0.0
2014-Oct-23 22:33N 37°57' E 023°37'0 0.0
2014-Oct-23 21:33N 37°57' E 023°37'0 0.0
2014-Oct-23 20:31N 37°57' E 023°37'1 1.0
2014-Oct-23 19:32N 37°57' E 023°35'1 1.0
2014-Oct-23 18:33N 37°57' E 023°37'0 0.0
2014-Oct-23 17:29N 37°57' E 023°37'0 0.0
2014-Oct-23 16:33N 37°57' E 023°37'2 1.9
2014-Oct-23 15:30N 37°57' E 023°34'2 2.1
2014-Oct-23 14:32N 37°57' E 023°37'1 0.5
2014-Oct-23 13:29N 37°57' E 023°36'1 0.6
2014-Oct-23 12:33N 37°57' E 023°37'0 0.0
2014-Oct-23 11:29N 37°57' E 023°37'0 0.0
2014-Oct-23 10:26N 37°57' E 023°37'0 0.0
2014-Oct-23 09:32N 37°57' E 023°37'0 0.0
2014-Oct-23 08:32N 37°57' E 023°37'0 0.0
2014-Oct-23 07:33N 37°57' E 023°37'0 0.0
2014-Oct-23 06:33N 37°57' E 023°37'0 0.0
2014-Oct-23 05:32N 37°57' E 023°37'0 0.0
2014-Oct-23 04:33N 37°57' E 023°37'0 0.0
2014-Oct-23 03:31N 37°57' E 023°37'0 0.0
2014-Oct-23 02:31N 37°57' E 023°37'0 0.0
2014-Oct-23 01:31N 37°57' E 023°37'0 0.0
2014-Oct-23 00:31N 37°57' E 023°37'0 0.0
2014-Oct-22 23:31N 37°57' E 023°37'0 0.0
2014-Oct-22 22:26N 37°57' E 023°37'0 0.0
2014-Oct-22 21:32N 37°57' E 023°37'0 0.0
2014-Oct-22 20:32N 37°57' E 023°37'0 0.0
2014-Oct-22 19:32N 37°57' E 023°37'0 0.0
2014-Oct-22 18:32N 37°57' E 023°37'0 0.0
2014-Oct-22 17:30N 37°57' E 023°37'0 0.0
2014-Oct-22 16:34N 37°57' E 023°37'0 0.0
2014-Oct-22 15:32N 37°57' E 023°37'0 0.0
2014-Oct-22 14:33N 37°57' E 023°37'0 0.0
2014-Oct-22 13:32N 37°57' E 023°37'0 0.0
2014-Oct-22 12:28N 37°57' E 023°37'0 0.0
2014-Oct-22 11:31N 37°57' E 023°37'0 0.0
2014-Oct-22 10:33N 37°57' E 023°37'0 0.0
2014-Oct-22 09:31N 37°57' E 023°37'0 0.0
2014-Oct-22 08:30N 37°57' E 023°37'0 0.0
2014-Oct-22 07:31N 37°57' E 023°37'0 0.0
2014-Oct-22 06:33N 37°57' E 023°37'0 0.0
2014-Oct-22 05:32N 37°57' E 023°37'0 0.0
2014-Oct-22 04:29N 37°57' E 023°37'0 0.0
2014-Oct-22 03:32N 37°57' E 023°37'0 0.0
2014-Oct-22 02:32N 37°57' E 023°37'0 0.0
2014-Oct-22 01:31N 37°57' E 023°37'0 0.0
2014-Oct-22 00:32N 37°57' E 023°37'0 0.0
2014-Oct-21 23:33N 37°57' E 023°37'0 0.0
2014-Oct-21 22:33N 37°57' E 023°37'0 0.0
2014-Oct-21 14:27N 37°57' E 023°37'  
2014-Oct-16 22:32N 37°58' E 023°34'0 0.0
2014-Oct-16 21:33N 37°58' E 023°34'0 0.0
2014-Oct-16 20:31N 37°58' E 023°34'0 0.0
2014-Oct-16 19:33N 37°58' E 023°34'0 0.0
2014-Oct-16 18:28N 37°58' E 023°34'0 0.0
2014-Oct-16 17:33N 37°58' E 023°34'0 0.0
2014-Oct-16 16:31N 37°58' E 023°34'0 0.0
2014-Oct-16 15:31N 37°58' E 023°34'0 0.0
2014-Oct-16 14:32N 37°58' E 023°34'0 0.0
2014-Oct-16 13:32N 37°58' E 023°34'0 0.0
2014-Oct-16 12:32N 37°58' E 023°34'0 0.0
2014-Oct-16 11:29N 37°58' E 023°34'0 0.0
2014-Oct-16 10:27N 37°58' E 023°34'0 0.0
2014-Oct-16 09:32N 37°58' E 023°34'0 0.0
2014-Oct-16 08:31N 37°58' E 023°34'0 0.0
2014-Oct-16 07:31N 37°58' E 023°34'0 0.0
2014-Oct-16 06:30N 37°58' E 023°34'0 0.0
2014-Oct-16 05:31N 37°58' E 023°34'0 0.0
2014-Oct-16 04:32N 37°58' E 023°34'0 0.0
2014-Oct-16 03:31N 37°58' E 023°34'0 0.0
2014-Oct-16 02:32N 37°58' E 023°34'0 0.0
2014-Oct-16 01:31N 37°58' E 023°34'0 0.0
2014-Oct-16 00:32N 37°58' E 023°34'0 0.0
2014-Oct-15 23:32N 37°58' E 023°34'0 0.0
2014-Oct-15 22:32N 37°58' E 023°34'  
Track history (hours):
 
Tides and Currents Weather Stations Pressure Air Temp Water Temp Dewpoint Dewpoint Depression Visibility Wind Speed Wind Dir Waves Ship Positions

Atlas

Last reported at 2014-Oct-25 21:33 UTC. Time now 2014-Oct-25 22:06 UTC.
Position N 37°57' E 023°37'.

Length 29 m; draft 5 m.

Type: Tug. MMSI: 239611000.

Date/timePositionNaut miles runAvg speedWind from/ knotsBaromVisibWave heightAir tempDewpointWater temp
2014-Oct-25 21:33N 37°57' E 023°37'0 0.0
2014-Oct-25 20:31N 37°57' E 023°37'0 0.0
2014-Oct-25 19:32N 37°57' E 023°37'1 0.7
2014-Oct-25 18:33N 37°57' E 023°36'0 0.1
2014-Oct-25 17:32N 37°57' E 023°36'1 0.5
2014-Oct-25 16:31N 37°57' E 023°37'0 0.0
2014-Oct-25 15:32N 37°57' E 023°37'0 0.0
2014-Oct-25 14:26N 37°57' E 023°37'0 0.2
2014-Oct-25 13:33N 37°57' E 023°36'1 1.1
2014-Oct-25 12:33N 37°56' E 023°36'1 1.2
2014-Oct-25 11:33N 37°58' E 023°36'0 0.2
2014-Oct-25 10:31N 37°57' E 023°37'0 0.2
2014-Oct-25 09:30N 37°57' E 023°36'0 0.2
2014-Oct-25 08:30N 37°57' E 023°37'0 0.0
2014-Oct-25 07:33N 37°57' E 023°37'1 1.0
2014-Oct-25 06:33N 37°57' E 023°35'1 1.0
2014-Oct-25 05:33N 37°56' E 023°36'1 0.9
2014-Oct-25 04:33N 37°57' E 023°35'1 1.2
2014-Oct-25 03:33N 37°57' E 023°36'0 0.4
2014-Oct-25 02:26N 37°57' E 023°37'0 0.0
2014-Oct-25 01:31N 37°57' E 023°37'0 0.0
2014-Oct-25 00:33N 37°57' E 023°37'0 0.0
2014-Oct-24 23:33N 37°57' E 023°37'0 0.0
2014-Oct-24 22:26N 37°57' E 023°37'0 0.0
2014-Oct-24 21:31N 37°57' E 023°37'0 0.0
2014-Oct-24 20:32N 37°57' E 023°37'0 0.0
2014-Oct-24 19:29N 37°57' E 023°37'0 0.0
2014-Oct-24 18:23N 37°57' E 023°37'0 0.0
2014-Oct-24 17:31N 37°57' E 023°37'2 1.9
2014-Oct-24 16:28N 37°58' E 023°34'0 0.0
2014-Oct-24 15:29N 37°58' E 023°34'2 1.7
2014-Oct-24 14:34N 37°57' E 023°36'0 0.4
2014-Oct-24 13:31N 37°57' E 023°37'2 2.0
2014-Oct-24 12:33N 37°58' E 023°34'0 0.0
2014-Oct-24 11:31N 37°58' E 023°34'2 2.0
2014-Oct-24 10:31N 37°57' E 023°37'0 0.0
2014-Oct-24 09:32N 37°57' E 023°37'0 0.0
2014-Oct-24 08:33N 37°57' E 023°37'0 0.0
2014-Oct-24 07:32N 37°57' E 023°37'0 0.0
2014-Oct-24 06:31N 37°57' E 023°37'0 0.0
2014-Oct-24 05:31N 37°57' E 023°37'0 0.0
2014-Oct-24 04:32N 37°57' E 023°37'0 0.0
2014-Oct-24 03:31N 37°57' E 023°37'0 0.0
2014-Oct-24 02:27N 37°57' E 023°37'0 0.0
2014-Oct-24 01:32N 37°57' E 023°37'0 0.0
2014-Oct-24 00:32N 37°57' E 023°37'0 0.0
2014-Oct-23 23:32N 37°57' E 023°37'0 0.0
2014-Oct-23 22:33N 37°57' E 023°37'0 0.0
2014-Oct-23 21:33N 37°57' E 023°37'0 0.0
2014-Oct-23 20:31N 37°57' E 023°37'1 1.0
2014-Oct-23 19:32N 37°57' E 023°35'1 1.0
2014-Oct-23 18:33N 37°57' E 023°37'0 0.0
2014-Oct-23 17:29N 37°57' E 023°37'0 0.0
2014-Oct-23 16:33N 37°57' E 023°37'2 1.9
2014-Oct-23 15:30N 37°57' E 023°34'2 2.1
2014-Oct-23 14:32N 37°57' E 023°37'1 0.5
2014-Oct-23 13:29N 37°57' E 023°36'1 0.6
2014-Oct-23 12:33N 37°57' E 023°37'0 0.0
2014-Oct-23 11:29N 37°57' E 023°37'0 0.0
2014-Oct-23 10:26N 37°57' E 023°37'0 0.0
2014-Oct-23 09:32N 37°57' E 023°37'0 0.0
2014-Oct-23 08:32N 37°57' E 023°37'0 0.0
2014-Oct-23 07:33N 37°57' E 023°37'0 0.0
2014-Oct-23 06:33N 37°57' E 023°37'0 0.0
2014-Oct-23 05:32N 37°57' E 023°37'0 0.0
2014-Oct-23 04:33N 37°57' E 023°37'0 0.0
2014-Oct-23 03:31N 37°57' E 023°37'0 0.0
2014-Oct-23 02:31N 37°57' E 023°37'0 0.0
2014-Oct-23 01:31N 37°57' E 023°37'0 0.0
2014-Oct-23 00:31N 37°57' E 023°37'0 0.0
2014-Oct-22 23:31N 37°57' E 023°37'0 0.0
2014-Oct-22 22:26N 37°57' E 023°37'0 0.0
2014-Oct-22 21:32N 37°57' E 023°37'0 0.0
2014-Oct-22 20:32N 37°57' E 023°37'0 0.0
2014-Oct-22 19:32N 37°57' E 023°37'0 0.0
2014-Oct-22 18:32N 37°57' E 023°37'0 0.0
2014-Oct-22 17:30N 37°57' E 023°37'0 0.0
2014-Oct-22 16:34N 37°57' E 023°37'0 0.0
2014-Oct-22 15:32N 37°57' E 023°37'0 0.0
2014-Oct-22 14:33N 37°57' E 023°37'0 0.0
2014-Oct-22 13:32N 37°57' E 023°37'0 0.0
2014-Oct-22 12:28N 37°57' E 023°37'0 0.0
2014-Oct-22 11:31N 37°57' E 023°37'0 0.0
2014-Oct-22 10:33N 37°57' E 023°37'0 0.0
2014-Oct-22 09:31N 37°57' E 023°37'0 0.0
2014-Oct-22 08:30N 37°57' E 023°37'0 0.0
2014-Oct-22 07:31N 37°57' E 023°37'0 0.0
2014-Oct-22 06:33N 37°57' E 023°37'0 0.0
2014-Oct-22 05:32N 37°57' E 023°37'0 0.0
2014-Oct-22 04:29N 37°57' E 023°37'0 0.0
2014-Oct-22 03:32N 37°57' E 023°37'0 0.0
2014-Oct-22 02:32N 37°57' E 023°37'0 0.0
2014-Oct-22 01:31N 37°57' E 023°37'0 0.0
2014-Oct-22 00:32N 37°57' E 023°37'0 0.0
2014-Oct-21 23:33N 37°57' E 023°37'0 0.0
2014-Oct-21 22:33N 37°57' E 023°37'0 0.0
2014-Oct-21 14:27N 37°57' E 023°37'  
2014-Oct-16 22:32N 37°58' E 023°34'0 0.0
2014-Oct-16 21:33N 37°58' E 023°34'0 0.0
2014-Oct-16 20:31N 37°58' E 023°34'0 0.0
2014-Oct-16 19:33N 37°58' E 023°34'0 0.0
2014-Oct-16 18:28N 37°58' E 023°34'0 0.0
2014-Oct-16 17:33N 37°58' E 023°34'0 0.0
2014-Oct-16 16:31N 37°58' E 023°34'0 0.0
2014-Oct-16 15:31N 37°58' E 023°34'0 0.0
2014-Oct-16 14:32N 37°58' E 023°34'0 0.0
2014-Oct-16 13:32N 37°58' E 023°34'0 0.0
2014-Oct-16 12:32N 37°58' E 023°34'0 0.0
2014-Oct-16 11:29N 37°58' E 023°34'0 0.0
2014-Oct-16 10:27N 37°58' E 023°34'0 0.0
2014-Oct-16 09:32N 37°58' E 023°34'0 0.0
2014-Oct-16 08:31N 37°58' E 023°34'0 0.0
2014-Oct-16 07:31N 37°58' E 023°34'0 0.0
2014-Oct-16 06:30N 37°58' E 023°34'0 0.0
2014-Oct-16 05:31N 37°58' E 023°34'0 0.0
2014-Oct-16 04:32N 37°58' E 023°34'0 0.0
2014-Oct-16 03:31N 37°58' E 023°34'0 0.0
2014-Oct-16 02:32N 37°58' E 023°34'0 0.0
2014-Oct-16 01:31N 37°58' E 023°34'0 0.0
2014-Oct-16 00:32N 37°58' E 023°34'0 0.0
2014-Oct-15 23:32N 37°58' E 023°34'0 0.0
2014-Oct-15 22:32N 37°58' E 023°34'  

Dump ship's entire track history